Latest Weather Observations for Gabo Island

IDV60801

Issued at 11:02 pm EST Thursday 20 September 2018 (issued every 10 minutes, with the page automatically refreshed every 10 minutes)

About weather observations | Map of weather stations | Latest weather observations for VIC | Other Formats
Station Details ID: 084016 Name: GABO ISLAND LIGHTHOUSE Lat: -37.57 Lon: 149.92 Height: 15.2 m
Data from the previous 72 hours. | See also: Recent months at Gabo Island
Date/Time
EST
Temp
°C
App
Temp
°C
Dew
Point
°C
Rel
Hum
%
Delta-T
°C
Wind Press
QNH
hPa
Press
MSL
hPa
Rain since
9am
mm
Dir  Spd
km/h
Gust
km/h
Spd
kts
Gust
kts
20/11:00pm 9.8 5.5 5.1 72 2.1 NW 17 20 9 11 1023.9 - 0.0
20/10:30pm 10.0 6.2 5.6 74 2.0 NW 15 20 8 11 1023.9 - 0.0
20/10:00pm 10.3 6.1 5.7 73 2.1 WNW 17 22 9 12 1023.8 - 0.0
20/09:30pm 10.4 6.3 6.1 75 2.0 WNW 17 22 9 12 1023.7 - 0.0
20/09:00pm 10.8 6.3 6.0 72 2.2 W 19 24 10 13 1023.4 1023.4 0.0
20/08:30pm 11.1 6.0 6.2 72 2.3 W 22 26 12 14 1022.9 - 0.0
20/08:00pm 11.5 6.3 5.7 67 2.7 W 22 28 12 15 1022.5 - 0.0
20/07:30pm 11.7 5.9 6.4 70 2.5 WSW 26 32 14 17 1022.3 - 0.0
20/07:00pm 12.1 6.0 6.6 69 2.6 WSW 28 33 15 18 1021.8 - 0.0
20/06:30pm 12.6 5.3 7.0 68 2.7 SW 35 41 19 22 1021.4 - 0.0
20/06:00pm 12.4 4.5 6.2 66 2.9 SW 37 43 20 23 1021.1 1021.1 0.0
20/05:30pm 12.5 4.5 5.9 64 3.1 SW 37 44 20 24 1020.8 - 0.0
20/05:00pm 12.9 4.7 6.4 64 3.1 SW 39 46 21 25 1020.4 - 0.0
20/04:30pm 13.1 3.3 5.4 59 3.6 SW 46 54 25 29 1020.1 - 0.0
20/04:00pm 13.3 4.3 6.6 64 3.2 SW 43 50 23 27 1019.7 - 0.0
20/03:30pm 13.4 2.6 6.2 61 3.4 SW 52 61 28 33 1019.6 - 0.0
20/03:00pm 13.2 2.3 5.7 60 3.5 SW 52 61 28 33 1019.5 1019.5 0.0
20/02:30pm 13.0 1.4 3.9 54 4.1 SSW 54 63 29 34 1019.5 - 0.0
20/02:00pm 12.9 1.9 4.8 58 3.7 SSW 52 59 28 32 1019.2 - 0.0
20/01:30pm 13.0 2.9 5.5 60 3.5 SSW 48 56 26 30 1019.1 - 0.0
20/01:00pm 13.0 2.8 5.0 58 3.7 SSW 48 56 26 30 1019.1 - 0.0
20/12:30pm 12.9 3.5 4.3 56 3.9 SSW 43 50 23 27 1019.0 - 0.0
20/12:00pm 12.9 3.6 4.8 58 3.7 SW 43 48 23 26 1019.0 1019.1 0.0
20/11:30am 12.8 3.4 4.5 57 3.8 SSW 43 50 23 27 1019.4 - 0.0
20/11:00am 12.7 3.0 4.0 55 3.9 SW 44 48 24 26 1019.5 - 0.0
20/10:30am 12.7 3.8 2.9 51 4.3 SW 39 48 21 26 1019.3 - 0.0
20/10:23am 13.0 5.6 4.2 55 4.0 SW 32 46 17 25 1019.4 - 0.0
20/10:00am 12.6 7.7 5.0 60 3.5 WSW 20 26 11 14 1019.7 - 0.0
20/09:30am 11.9 7.1 5.6 65 2.9 WSW 20 26 11 14 1019.6 - 0.0
20/09:00am 10.7 1.9 5.5 70 2.4 WSW 41 46 22 25 1019.5 1019.5 0.0
20/08:30am 11.2 2.6 4.5 63 3.0 W 39 48 21 26 1018.9 - 0.0
20/08:00am 10.8 3.0 5.1 68 2.6 WSW 35 44 19 24 1018.7 - 0.0
20/07:30am 10.4 2.6 4.8 68 2.5 W 35 44 19 24 1018.2 - 0.0
20/07:00am 9.6 1.4 4.7 71 2.2 W 37 43 20 23 1017.7 - 0.0
20/06:30am 8.8 1.3 4.5 74 1.9 W 33 39 18 21 1017.5 - 0.0
20/06:00am 8.8 1.4 5.0 77 1.7 W 33 41 18 22 1017.3 1017.3 0.0
20/05:30am 8.7 1.8 4.4 74 1.9 W 30 37 16 20 1017.0 - 0.0
20/05:00am 8.9 1.4 4.4 73 2.0 W 33 44 18 24 1016.6 - 0.0
20/04:30am 8.9 0.3 4.6 74 1.9 W 39 48 21 26 1016.3 - 0.0
20/04:00am 9.3 2.4 4.8 73 2.0 WSW 30 35 16 19 1016.4 - 0.0
20/03:30am 9.1 1.3 4.8 74 1.9 W 35 43 19 23 1016.2 - 0.0
20/03:00am 9.1 1.2 4.6 73 2.0 W 35 43 19 23 1015.8 1015.8 0.0
20/02:30am 9.3 -0.1 4.6 72 2.1 W 43 52 23 28 1015.8 - 0.0
20/02:00am 9.5 0.5 4.8 72 2.1 W 41 48 22 26 1015.8 - 0.0
20/01:30am 9.4 0.4 4.4 71 2.2 W 41 48 22 26 1016.0 - 0.0
20/01:00am 9.4 1.1 4.4 71 2.2 W 37 48 20 26 1016.1 - 0.0
20/12:30am 9.5 1.6 4.3 70 2.3 W 35 43 19 23 1016.2 - 0.0
20/12:00am 9.5 3.0 4.5 71 2.2 W 28 43 15 23 1016.1 1016.1 0.0
 
Date/Time
EST
Temp
°C
App
Temp
°C
Dew
Point
°C
Rel
Hum
%
Delta-T
°C
Wind Press
QNH
hPa
Press
MSL
hPa
Rain since
9am
mm
Dir  Spd
km/h
Gust
km/h
Spd
kts
Gust
kts
19/11:30pm 9.0 3.6 4.7 74 1.9 W 22 32 12 17 1016.1 - 0.0
19/11:00pm 9.3 3.5 4.6 72 2.1 W 24 35 13 19 1016.0 - 0.0
19/10:30pm 10.2 4.1 4.9 69 2.4 W 26 32 14 17 1015.7 - 0.0
19/10:00pm 10.3 3.8 4.5 67 2.6 W 28 35 15 19 1015.5 - 0.0
19/09:30pm 10.6 3.7 4.8 67 2.6 W 30 39 16 21 1015.3 - 0.0
19/09:00pm 11.0 3.6 4.8 65 2.8 WSW 33 44 18 24 1015.1 1015.1 0.0
19/08:30pm 11.1 3.3 4.9 65 2.8 WSW 35 43 19 23 1014.9 - 0.0
19/08:00pm 11.2 2.6 4.8 64 2.9 WSW 39 48 21 26 1014.4 - 0.0
19/07:30pm 11.3 1.7 4.4 62 3.1 WSW 44 56 24 30 1013.9 - 0.0
19/07:00pm 11.3 1.3 4.2 61 3.2 WSW 46 57 25 31 1013.5 - 0.0
19/06:30pm 11.6 0.9 4.5 61 3.2 WSW 50 61 27 33 1012.9 - 0.0
19/06:00pm 11.8 0.7 4.3 60 3.4 WSW 52 63 28 34 1012.5 1012.5 0.0
19/05:30pm 12.1 0.7 4.9 61 3.3 SW 54 65 29 35 1012.1 - 0.0
19/05:00pm 12.1 -0.8 5.7 65 3.0 SW 63 74 34 40 1011.4 - 0.0
19/04:30pm 12.4 1.1 5.3 62 3.3 SW 54 69 29 37 1011.4 - 0.0
19/04:00pm 12.4 -0.4 4.8 60 3.5 SW 61 72 33 39 1011.0 - 0.0
19/03:30pm 12.6 1.7 5.5 62 3.3 SW 52 65 28 35 1010.8 - 0.0
19/03:00pm 12.9 -0.6 4.9 58 3.7 SW 65 80 35 43 1010.3 1010.2 0.0
19/02:30pm 13.1 1.7 5.1 58 3.7 SW 54 67 29 36 1010.2 - 0.0
19/02:27pm 13.3 1.5 5.9 61 3.5 SW 57 76 31 41 1010.2 - 0.0
19/02:00pm 12.6 -0.3 5.8 63 3.2 SW 63 76 34 41 1009.2 - 0.0
19/01:30pm 13.0 2.5 5.8 61 3.4 SW 50 61 27 33 1009.6 - 0.0
19/01:00pm 12.4 1.0 6.5 67 2.8 SW 56 67 30 36 1009.4 - 0.0
19/12:52pm 12.7 1.0 6.4 65 3.0 SW 57 65 31 35 1009.6 - 0.0
19/12:30pm 11.7 4.3 8.2 79 1.7 WSW 37 54 20 29 1009.8 - 0.0
19/12:00pm 11.7 1.5 7.1 73 2.2 SW 50 59 27 32 1009.5 1009.4 0.0
19/11:30am 11.6 1.1 7.5 76 2.0 SW 52 61 28 33 1009.4 - 0.0
19/11:00am 12.0 1.0 6.8 70 2.5 SW 54 61 29 33 1009.2 - 0.0
19/10:30am 12.9 3.2 7.6 70 2.6 SW 48 57 26 31 1009.0 - 0.0
19/10:00am 13.4 4.5 6.8 64 3.2 SW 43 52 23 28 1009.2 - 0.0
19/09:30am 13.0 4.3 7.9 71 2.5 SW 43 48 23 26 1009.2 - 0.0
19/09:00am 13.3 5.6 8.5 72 2.4 SW 39 44 21 24 1008.9 1008.9 0.0
19/08:30am 13.1 5.5 9.2 77 2.0 SSW 39 44 21 24 1009.1 - 0.0
19/08:15am 13.3 7.0 9.8 79 1.8 SW 33 46 18 25 1009.0 - 0.0
19/08:00am 13.5 9.4 10.0 79 1.8 WSW 22 28 12 15 1009.0 - 0.0
19/07:30am 13.3 7.6 9.8 79 1.8 SW 30 35 16 19 1008.9 - 0.0
19/07:00am 12.9 10.3 10.6 86 1.2 SW 15 20 8 11 1008.7 - 0.0
19/06:30am 12.7 10.9 10.8 88 1.0 SSW 11 13 6 7 1008.3 - 0.0
19/06:00am 11.9 10.2 9.7 86 1.1 S 9 13 5 7 1007.9 1008.0 0.0
19/05:30am 11.5 10.0 9.1 85 1.2 S 7 9 4 5 1007.9 - 0.0
19/05:00am 12.9 10.9 10.2 84 1.4 S 11 15 6 8 1007.8 - 0.0
19/04:30am 13.2 10.1 10.3 82 1.5 SSW 17 19 9 10 1007.9 - 0.0
19/04:00am 13.5 10.3 10.0 79 1.8 SSW 17 20 9 11 1008.2 - 0.0
19/03:30am 13.6 9.8 9.9 78 1.9 SSW 20 26 11 14 1008.1 - 0.0
19/03:00am 13.8 8.9 9.9 77 2.0 S 26 30 14 16 1008.1 1008.1 0.0
19/02:30am 14.1 9.4 10.5 79 1.9 SSW 26 33 14 18 1008.4 - 0.0
19/02:00am 14.2 8.7 10.6 79 1.9 SSW 30 35 16 19 1008.3 - 0.0
19/01:30am 14.6 9.6 10.8 78 2.0 WSW 28 35 15 19 1008.3 - 0.0
19/01:22am 14.2 8.1 6.8 61 3.6 W 28 35 15 19 1008.3 - 0.0
19/01:00am 14.1 11.9 5.2 55 4.2 WSW 6 9 3 5 1007.9 - 0.0
19/12:30am 15.3 12.5 3.2 44 5.5 N 7 13 4 7 1008.1 - 0.0
19/12:00am 15.4 11.2 1.8 40 6.0 N 13 17 7 9 1008.2 1008.2 0.0
 
Date/Time
EST
Temp
°C
App
Temp
°C
Dew
Point
°C
Rel
Hum
%
Delta-T
°C
Wind Press
QNH
hPa
Press
MSL
hPa
Rain since
9am
mm
Dir  Spd
km/h
Gust
km/h
Spd
kts
Gust
kts
18/11:30pm 16.3 11.4 -0.8 31 7.2 N 15 19 8 10 1008.3 - 0.0
18/11:00pm 15.1 10.4 0.7 37 6.2 N 15 19 8 10 1008.6 - 0.0
18/10:30pm 13.9 10.4 5.4 56 4.0 N 13 15 7 8 1009.3 - 0.0
18/10:00pm 14.8 12.2 9.4 70 2.8 NNE 13 19 7 10 1009.3 - 0.0
18/09:30pm 15.8 11.8 2.8 41 5.9 NW 13 17 7 9 1009.3 - 0.0
18/09:00pm 16.5 11.9 3.8 42 5.9 NW 17 20 9 11 1009.7 1009.7 0.0
18/08:30pm 15.4 11.9 5.6 52 4.7 NW 13 17 7 9 1009.6 - 0.0
18/08:00pm 14.3 11.6 7.4 63 3.4 N 11 13 6 7 1009.4 - 0.0
18/07:30pm 16.0 13.4 5.9 51 4.9 N 9 11 5 6 1009.3 - 0.0
18/07:00pm 16.3 12.1 5.7 49 5.1 N 17 20 9 11 1008.9 - 0.0
18/06:30pm 15.3 11.2 7.7 60 3.8 N 19 22 10 12 1008.8 - 0.0
18/06:00pm 14.6 10.2 11.6 82 1.6 NE 26 30 14 16 1008.4 1008.4 0.0
18/05:30pm 15.2 8.6 11.3 77 2.1 NE 37 43 20 23 1008.1 - 0.0
18/05:00pm 15.7 7.9 11.0 73 2.5 NE 43 48 23 26 1007.9 - 0.0
18/04:30pm 16.3 7.9 9.6 64 3.5 NNE 44 52 24 28 1007.8 - 0.0
18/04:00pm 17.8 8.4 4.6 41 6.3 NNE 43 54 23 29 1007.8 - 0.0
18/03:30pm 16.0 8.4 9.0 63 3.6 NE 39 44 21 24 1008.0 - 0.0
18/03:00pm 16.5 9.1 8.5 59 4.1 NE 37 44 20 24 1008.6 1008.7 0.0
18/02:30pm 16.1 9.2 10.2 68 3.1 NE 37 41 20 22 1009.3 - 0.0
18/02:00pm 16.0 8.6 9.9 67 3.2 NE 39 44 21 24 1009.6 - 0.0
18/01:30pm 16.8 9.6 9.1 60 4.0 NE 37 43 20 23 1010.2 - 0.0
18/01:00pm 17.8 9.4 5.4 44 6.0 NE 39 44 21 24 1010.6 - 0.0
18/12:30pm 17.8 10.6 6.0 46 5.8 NE 33 39 18 21 1011.4 - 0.0
18/12:00pm 18.0 10.7 4.6 41 6.4 NNE 32 39 17 21 1012.3 1012.3 0.0
18/11:30am 17.7 10.0 3.5 38 6.6 NNE 33 41 18 22 1012.5 - 0.0
18/11:00am 16.3 10.2 8.4 59 4.0 NE 30 35 16 19 1012.7 - 0.0
18/10:30am 15.8 11.3 8.5 62 3.7 NE 22 28 12 15 1013.6 - 0.0
18/10:00am 15.5 10.0 7.7 59 3.9 NE 26 30 14 16 1014.1 - 0.0
18/09:30am 14.6 11.5 7.3 61 3.6 NNE 13 19 7 10 1014.9 - 0.0
18/09:00am 14.3 13.7 7.4 63 3.4 CALM 0 6 0 3 1015.4 1015.4 0.0
18/08:30am 13.7 12.4 5.9 59 3.7 NNE 2 7 1 4 1015.6 - 0.0
18/08:00am 12.9 11.1 7.8 71 2.5 NE 7 9 4 5 1015.8 - 0.0
18/07:30am 11.9 11.1 6.4 69 2.6 CALM 0 6 0 3 1015.8 - 0.0
18/07:00am 10.6 7.7 2.7 58 3.4 NW 7 11 4 6 1015.7 - 0.0
18/06:30am 9.8 7.8 7.0 83 1.3 S 7 9 4 5 1015.6 - 0.0
18/06:00am 9.8 9.2 7.5 85 1.1 CALM 0 0 0 0 1015.6 1015.6 0.0
18/05:30am 9.7 7.8 6.7 81 1.4 NE 6 7 3 4 1015.5 - 0.0
18/05:00am 10.0 8.2 7.0 81 1.4 NNE 6 7 3 4 1015.3 - 0.0
18/04:30am 8.7 6.4 5.6 81 1.4 N 7 9 4 5 1015.2 - 0.0
18/04:00am 10.6 9.6 5.8 72 2.2 CALM 0 0 0 0 1015.2 - 0.0
18/03:30am 9.9 7.8 5.8 75 1.9 NE 6 7 3 4 1015.0 - 0.0
18/03:00am 9.4 7.7 5.9 79 1.6 W 4 7 2 4 1015.2 1015.3 0.0
18/02:30am 10.0 7.8 6.3 78 1.7 W 7 9 4 5 1015.6 - 0.0
18/02:00am 10.4 8.6 7.0 79 1.6 W 6 9 3 5 1016.0 - 0.0
18/01:30am 10.9 9.6 7.6 80 1.6 NNE 4 7 2 4 1016.2 - 0.0
18/01:00am 10.9 10.3 7.3 78 1.7 CALM 0 0 0 0 1016.4 - 0.0
18/12:30am 11.1 9.4 7.6 79 1.7 N 6 9 3 5 1016.7 - 0.0
18/12:00am 11.5 9.9 7.8 78 1.8 N 6 7 3 4 1016.6 - 0.0
 
Date/Time
EST
Temp
°C
App
Temp
°C
Dew
Point
°C
Rel
Hum
%
Delta-T
°C
Wind Press
QNH
hPa
Press
MSL
hPa
Rain since
9am
mm
Dir  Spd
km/h
Gust
km/h
Spd
kts
Gust
kts
17/11:30pm 11.4 8.1 7.9 79 1.7 N 15 19 8 10 1016.7 - 0.0

Other Formats:

Comma delimited format used in spreadsheet applications
http://www.bom.gov.au/fwo/IDV60801/IDV60801.94933.axf

JavaScript Object Notation format (JSON) in row-major order
http://www.bom.gov.au/fwo/IDV60801/IDV60801.94933.json